Regional Weather Roundup
Issued by NWS Wakefield, VA

Home | Current Version | Previous Version | Text Only | Print | Product List | Glossary Off
Versions: 1 2 3 4 5 6 7 8 9 10 11 12 13 14 15 16 17 18 19 20 21 22 23 24 25 26 27 28 29 30 31 32 33 34 35 36 37 38 39 40 41 42 43 44 45 46 47 48 49 50

000
ASUS41 KAKQ 260715
RWRAKQ

REGIONAL WEATHER ROUNDUP
NATIONAL WEATHER SERVICE WAKEFIELD VA
300 AM EDT FRI MAY 26 2017

Note: "fair" indicates few or no clouds below 12,000 feet with no
significant weather and/or obstructions to visibility. * = Denotes
station may not report precipitation (e.g., rain,snow,etc.),
thunder or fog.

VAZ042-051-052>054-056-260800-
NORTHERN VIRGINIA

CITY           SKY/WX    TMP DP  RH WIND       PRES   REMARKS
WASH NATIONAL  PTCLDY    59  57  93 S7        29.61R
DULLES         MOCLDY    54  53  97 CALM      29.61R
FORT BELVOIR   PTCLDY    55  54  94 CALM      29.61R FOG
QUANTICO       PTCLDY    59  57  93 NW5       29.63R
FREDERICKSBRG* CLOUDY    58  58 100 SW6       29.62R
STAFFORD*      CLOUDY    56  56 100 SW5       29.66R
WARRENTON      CLOUDY    57  53  88 SW3       29.62R
CULPEPER*      CLOUDY    56  56 100 CALM      29.63S
MANASSAS*      CLOUDY    56  55  97 SW3       29.62R
LEESBURG*      PTCLDY    55  55 100 W3        29.62R
WINCHESTER     LGT RAIN  55  54  94 SW5       29.62R
FRONT ROYAL*   CLOUDY    55  54  94 S5        29.61R
LURAY*         PTSUNNY   54  54 100 S3          N/A
$$

VAZ048-049-060>072-079>083-260800-
CENTRAL AND SOUTH CENTRAL VIRGINIA

CITY           SKY/WX    TMP DP  RH WIND       PRES   REMARKS
RICHMOND       PTCLDY    59  55  87 W13       29.67R
CHESTERFIELD*  NOT AVBL
PETERSBURG*    CLEAR     58  53  83 SW8       29.69S
HANOVER        CLOUDY    60  53  77 SW8       29.67R
TAPPAHANNOCK*  CLEAR     59  53  82 SW7       29.64R
QUINTON*       FAIR      58  56  94 MISG      29.66R
CHARLOTTSVILLE CLEAR     62  52  69 VRB3      29.64R
GORDONSVILLE*  PTSUNNY   58  54  88 SW5       29.64R
ORANGE*        CLOUDY    54  54 100 CALM      29.64R
LOUISA*        PTCLDY    59  57  94 SW5       29.64R
BUMPASS*       CLOUDY    56  55  97 SW5       29.64S
FARMVILLE*     CLEAR     60  52  74 SW6       29.68R
CREWE*         FAIR      59  55  87 W5        29.69R
FORT PICKETT*  FAIR      57  54  88 W6        29.70R
CHASE CITY*    FAIR      59  56  90 CALM      29.73R
CLARKSVILLE*   FAIR      59  55  88 SW8       29.74R
SOUTH HILL*    CLEAR     58  55  87 SW7       29.77R
LAWRENCEVILLE* FAIR      58  54  85 SW6       29.71R
EMPORIA*       CLEAR     59  54  82 SW5       29.72S
$$

VAZ088>098-260800-
SOUTHEAST VIRGINIA

CITY           SKY/WX    TMP DP  RH WIND       PRES   REMARKS
NORFOLK        CLEAR     64  55  72 SW12G20   29.67R
VIRGINIA BEACH CLEAR     62  54  74 SW13      29.66R
NORFOLK NAVAL  CLEAR     65  54  67 W10G23    29.69R
WEST POINT*    CLEAR     59  55  87 W9        29.67R
SALUDA*        FAIR      59  56  91 SW6       29.64R
NEWPORT NEWS   CLEAR     62  55  77 W14       29.67
LANGLEY AFB    CLEAR     63  55  77 W12       29.66R
FORT EUSTIS    CLEAR     61  55  80 W10G17    29.65R
WILLIAMSBURG*  CLEAR     61  55  82 W7        29.68R
HR EXEC AP*    FAIR      61  54  77 W8        29.68R
FRANKLIN*      CLEAR     62  54  74 W8G18     29.70R
US460-WAKEFLD  CLEAR     60  55  83 SW9       29.69R
$$

VAZ020-022-025-037-045-260800-
WEST CENTRAL AND SOUTHWEST VIRGINIA

CITY           SKY/WX    TMP DP  RH WIND       PRES   REMARKS
STAUNTON*      PTCLDY    54  51  89 SW3       29.67S
WAYNESBORO*    SUNNY     57  55  91 SW8       29.67R
HOT SPRINGS VA NOT AVBL
LYNCHBURG      MOCLDY    59  54  83 CALM      29.72R
DANVILLE       MOCLDY    61  54  77 SW10      29.76R
SOUTH BOSTON*  FAIR      57  55  91 SW6       29.74R
MARTINSVILLE   MOCLDY    59  52  77 SW5       29.80S
ROANOKE        CLOUDY    64  51  62 W8        29.76R
BLACKSBURG     CLOUDY    59  52  77 W10G23    29.82R
DUBLIN*        CLOUDY    60  49  68 W16G29    29.82R
MARION*        CLOUDY    56  53  90 CALM      29.87R
HILLSVILLE*    CLOUDY    57  47  69 W5G25     29.83R
RICHLANDS*     CLOUDY    55  26  33 W8G16     29.88R
WISE*          CLOUDY    57  55  94 W8        29.91R
ABINGDON*      CLOUDY    58  57  97 W8        29.89R
$$

MDZ021>025-VAZ099-100-260800-
SOUTHERN MARYLAND AND THE DELMARVA PENINSULA

CITY           SKY/WX    TMP DP  RH WIND       PRES   REMARKS
PATUXENT RIVER CLEAR     59  58  96 W13       29.60R
BAY BRIDGE APT CLEAR     61  59  94 W9        29.58R
LEONARDTOWN    CLEAR     57  54  88 SW6       29.63R
DOVER          CLEAR     60  60 100 SW9       29.54R
GEORGETOWN     CLEAR     60  57  89 W8        29.58R
EASTON         CLEAR     61  58  91 W5        29.62R
CAMBRIDGE      CLEAR     59  57  94 SW5       29.59S
SALISBURY      CLEAR     60  60 100 W9        29.59R
OCEAN CITY     CLEAR     60  57  89 W10       29.59R
WALLOPS ISLAND CLEAR     62  58  86 W9        29.62R
ACCOMACK*      CLEAR     63  10  12 W8G20     29.63R
$$

NCZ012>017-030>032-260800-
NORTH CENTRAL AND EASTERN NORTH CAROLINA

CITY           SKY/WX    TMP DP  RH WIND       PRES   REMARKS
ROANOKE RAPIDS FAIR      61  54  77 SW10      29.73R
RALEIGH        PTCLDY    60  54  80 W8        29.80R
ELIZABETH CITY CLEAR     65  56  72 SW13      29.71R
AHOSKIE*         N/A     61  55  81 CALM        N/A
EDENTON*       CLEAR     68  58  70 SW14G22   29.74R
CURRITUCK*     CLEAR     65  55  67 SW12G17   29.71R
KILL DEVIL HLS CLEAR     67  55  63 SW10G25   29.71R
MANTEO         CLEAR     67  56  68 W18G26    29.74R
CAPE HATTERAS  CLEAR     70  55  59 W14G29    29.77R
TARBORO*       NOT AVBL
GOLDSBORO      CLEAR     64  57  78 SW13      29.78R
WASHINGTON     CLEAR     64  55  72 SW10G18   29.77R
GREENVILLE     CLEAR     63  54  72 SW10      29.80S
NEW BERN       CLEAR     66  54  65 SW10      29.81R
WILMINGTON     CLEAR     66  54  65 SW14      29.85R
$$

VAZ048-260800-
ELSEWHERE

CITY           SKY/WX    TMP DP  RH WIND       PRES   REMARKS
HARRISBURG PA  PTCLDY    58  57  97 NW8       29.54R
BALTIMORE      PTCLDY    58  58 100 W10       29.57R
ANNAPOLIS      CLEAR     61  60  97 W6        29.58R
ANDREWS AFB    CLEAR     57  56  96 W9        29.60R
PHILADELPHIA   LGT RAIN  59  57  93 W8        29.53R
HENDERSON NC   CLEAR     55  50  83 SW9       29.76R
GREENSBORO     MOCLDY    58  53  84 W8        29.80R
ROCKY MOUNT    CLEAR     61  55  81 SW7       29.77R
$$

VAZ100-260800-
MARINE

STATION/POSITION TIME  TEMP    WIND        PRES    WAVE   SWELL
                       AIR SEA DIR/SP/G            HT/PER HT/PER
                 (UTC) (F)     (DEG/KT/KT) (MB)    (FT/S) (FT/S)
CAPE MAY NJ      0648   61 62  260/ 19/ 21  999.9R
LEWES DE         0648   61 62  260/ 11/ 17 1000.6R
15NM E FENWICK I 0650   60 57  240/ 14/ 16 1001.5R   5/ 7   3/ 7
OCEAN-CITY-INLET 0648   61 61  280/ 12/ 15 1002.0R
WACHAPREAGUE VA  0648   63 67  230/  8/ 16 1003.1R
THOMAS POINT MD  0700   61 64  260/ 15/ 17   N/A
GOOSES REEF MD   0700   61 62  300/ 14/ 16 1002.9    1/ 2
COVE POINT MD    0648   60     270/ 12/ 15 1002.9R
SOLOMONS ISLAND  0648   60 66  240/ 11/ 14   N/A
BISHOPS HEAD MD  0648   64 67  260/ 20/ 22 1002.9R
PINEY POINT MD   0648          300/ 11/ 13   N/A
POTOMAC MD       0700   63 66  260/ 17/ 19 1001.6    2/ 3
CAMBRIDGE MD     0648   60 68                N/A
LEWISETTA VA     0648   62 67  270/ 11/ 14 1002.8R
RAPPAHANNOCK LGT 0648          250/ 21/ 24 1003.7R
STINGRAY PT      0650   62     270/ 16/ 19 1002.9R
YORK RVR RNG VA  0648   64     260/ 22/ 26 1003.2R
YORKTOWN VA      0648   62 68  250/ 14/ 20 1003.9R
JAMESTOWN VA     0700   61 71  240/ 12/ 16   N/A     1
DOMINION TERM VA 0648   65     270/ 16/ 21 1004.7R
KIPTOPEKE VA     0648      65  270/ 22/ 27   N/A
CHES BAY BRIDGE  0648   65 66  250/ 20/ 24 1004.0R
CAPE HENRY VA    0648   63     240/ 12/ 19   N/A
WILLOUBY STN VA  0648   65     260/ 25/ 28 1003.5R
S CRANEY ISL VA  0648   64     240/  7/ 15 1004.5R
CAPE HENRY BUOY  0642      62                N/A     4/ 8
1ST LANDING BUOY 0700   66 65              1004.6    2/ 3
CAPE CHARLES BUO 0651      61                N/A     4/ 3
64NM E OF VA BCH 0650   66 63  240/ 17/ 21 1005.1R   7/ 8   5/ 8
DUCK PIER NC     0648   68 62  240/ 22/ 27 1005.6R
44100 DUCK FRF   0635      63                N/A     4/ 9   2/11
44056 DUCK FRF   0630      62                N/A     3/ 8
OREGON INLET NC  0636   70 71  230/ 25/ 29 1006.3R
HATTERAS NC      0648   70 73  240/ 17/ 25 1007.7R
DIAMOND SHLS NC  0650   74 78  260/ 29/ 35 1007.5R   9/ 8
CAPE LOOKOUT NC  0700   71     260/ 24/ 29 1009.0R
$$



USA.gov is the U.S. government's official web portal to all federal, state and local government web resources and services.